IU5JJW-13 Weather Reports


time (UTC)temp
C
wind
direction
speed
KPH
gust
KPH
rain 1hr
cm
rain 24hr
cm
rain mn
cm
humidity
%
barometer
mb
20260505081503 17 298 9.7 17.7 0.00 0.51 0.51 91 1012.7
20260505080011 17 297 11.3 25.7 0.00 0.51 0.51 92 1012.7
20260505074503 17 291 12.9 25.7 0.00 0.51 0.51 92 1012.6
20260505073009 17 294 11.3 12.9 0.00 0.51 0.51 92 1012.7
20260505071504 17 292 9.7 25.7 0.00 0.51 0.51 92 1012.7
20260505064504 17 285 12.9 22.5 0.00 0.51 0.51 92 1012.6
20260505063004 17 287 12.9 35.4 0.00 0.51 0.51 92 1012.5
20260505061504 17 275 12.9 24.1 0.00 0.51 0.51 92 1012.5
20260505054504 17 288 14.5 25.7 0.00 0.51 0.51 92 1012.1
20260505053004 17 294 14.5 29.0 0.00 0.51 0.51 92 1011.9
20260505051504 17 281 12.9 37.0 0.00 0.51 0.51 92 1011.9
20260505041504 16 291 14.5 27.4 0.00 0.51 0.51 93 1011.6
20260505040005 16 281 14.5 32.2 0.00 0.51 0.51 93 1011.6
20260505034504 16 284 12.9 29.0 0.00 0.51 0.51 93 1011.8
20260505031504 16 297 12.9 29.0 0.03 0.51 0.51 93 1012.1
20260505024504 16 300 12.9 27.4 0.05 0.51 0.51 92 1012.3
20260505023005 16 297 12.9 32.2 0.05 0.51 0.51 92 1012.5
20260505021504 16 303 12.9 29.0 0.05 0.51 0.51 92 1012.7
20260505020006 16 309 12.9 33.8 0.00 0.46 0.46 92 1012.7
20260505014504 16 301 12.9 30.6 0.00 0.46 0.46 92 1012.9
20260505013005 16 311 11.3 30.6 0.03 0.46 0.46 92 1013.0
20260505011504 16 313 12.9 33.8 0.10 0.46 0.46 91 1013.2
20260505010005 16 314 9.7 30.6 0.13 0.46 0.46 92 1013.5
20260505003004 16 315 9.7 25.7 0.18 0.43 0.43 91 1013.8
20260505001504 16 313 11.3 27.4 0.15 0.36 0.36 91 1014.2
20260505000005 16 308 8.0 24.1 0.20 0.33 0.33 92 1014.4
20260504234504 16 324 6.4 20.9 0.23 0.28 0.28 92 1014.6
20260504230008 16 321 6.4 17.7 0.15 0.15 0.15 90 1015.2
20260504223009 17 315 6.4 16.1 0.00 0.00 0.00 86 1015.4
20260504221504 17 319 4.8 17.7 0.00 0.00 0.00 84 1015.5
20260504220006 17 319 6.4 19.3 0.00 0.00 0.00 82 1015.7
20260504214504 17 316 6.4 20.9 0.00 0.00 0.00 82 1015.9
20260504213006 17 319 8.0 22.5 0.00 0.00 0.00 84 1015.8
20260504211504 17 316 8.0 22.5 0.00 0.00 0.00 86 1016.1
20260504210004 17 314 8.0 29.0 0.00 0.00 0.00 86 1016.0
20260504204505 17 307 8.0 22.5 0.00 0.00 0.00 86 1016.0
20260504201506 17 314 8.0 19.3 0.00 0.00 0.00 88 1016.2
20260504194504 17 312 6.4 19.3 0.00 0.00 0.00 88 1016.3
20260504193006 17 315 8.0 19.3 0.00 0.00 0.00 87 1016.3
20260504191507 17 309 9.7 19.3 0.00 0.00 0.00 87 1016.0
20260504190004 17 305 8.0 20.9 0.00 0.00 0.00 87 1015.8
20260504184504 17 314 9.7 17.7 0.00 0.00 0.00 87 1015.8
20260504183004 17 316 8.0 20.9 0.00 0.00 0.00 86 1015.7
20260504174504 17 313 6.4 22.5 0.00 0.00 0.00 85 1016.0
20260504173020 17 315 9.7 19.3 0.00 0.00 0.00 84 1016.2
20260504171506 17 314 8.0 19.3 0.00 0.00 0.00 83 1016.2